Location: Kearney
(40.6990°N, 99.0810°W)
Time: 00:44:19
(UTC-05:00)

Cosmos 1536 Rocket - Pass Details

Date: 18 December 2017
Orbit: 605 x 633 km, 82.5° (Epoch: 24 April)

Event Time Altitude Azimuth Distance (km) Brightness Sun altitude
Rises 17:51:42 0° 181° (S) 2,865 7.3 -7.7°
Reaches altitude 10° 17:53:55 10° 179° (S) 1,961 6.4 -8.1°
Maximum altitude 17:58:14 71° 95° (E) 648 3.5 -8.8°
Drops below altitude 10° 18:02:33 10° 12° (NNE) 1,964 5.8 -9.6°
Sets 18:04:46 0° 11° (N) 2,871 6.7 -9.9°
